Regional Weather Roundup
Issued by NWS

Home | Current Version | Previous Version | Graphics & Text | Print | Product List | Glossary On
Versions: 1 2 3 4 5 6 7 8 9 10 11 12 13 14 15 16 17 18 19 20 21 22 23 24 25 26 27 28 29 30 31 32 33 34 35 36 37 38 39 40 41 42 43 44 45 46 47 48 49 50
000
ASUS45 KBOU 021807
RWRCO

WEATHER ROUNDUP FOR COLORADO
NATIONAL WEATHER SERVICE DENVER/BOULDER CO
1200 PM MDT TUE JUN 02 2015

NOTE: "FAIR" INDICATES FEW OR NO CLOUDS BELOW 12000 FEET WITH NO
SIGNIFICANT WEATHER AND/OR OBSTRUCTIONS TO VISIBILITY.

COZ001>005-013-030-031-021900-
...NORTHWEST COLORADO...

CITY           SKY/WX    TMP DP  RH WIND       PRES   REMARKS
CRAIG          SUNNY     76  36  23 W18       30.05F
HAYDEN         SUNNY    N/A N/A N/A W17G26    30.07F
MEEKER         SUNNY     77  26  15 SW14G23   30.07F
MOUNT WERNER   NOT AVBL
STEAMBOAT SPGS SUNNY     71  35  26 W12       30.09F
WALDEN         SUNNY     70  25  18 W17G23    30.16S
$$

COZ006>008-011-021900-
...WEST CENTRAL VALLEYS...

CITY           SKY/WX    TMP DP  RH WIND       PRES   REMARKS
GRAND JUNCTION SUNNY     81  25  12 NW16      29.99F
MONTROSE       SUNNY     82  23  11 SW15      30.08F
EAGLE          MOSUNNY   82  32  16 SW13G21   30.10F
RIFLE          SUNNY     79  29  16 W17       30.02F
DELTA          SUNNY     83  24  11 S3        30.04F
NUCLA          SUNNY     79  19  11 SW17G24   30.13F
$$

COZ017>023-064>068-021900-
...SOUTHWEST COLORADO...

CITY           SKY/WX    TMP DP  RH WIND       PRES   REMARKS
DURANGO        SUNNY     74  24  15 VRB7      30.20F
CORTEZ         SUNNY     79  24  13 S15       30.14F
PAGOSA SPRINGS SUNNY     71  19  14 SW9G18    30.27F
TELLURIDE      SUNNY     68  14  12 S3        30.32S
WOLF CREEK PAS NOT AVBL
$$

COZ009-010-012-014-032>034-037-058>063-021900-
...CENTRAL COLORADO...

CITY           SKY/WX    TMP DP  RH WIND       PRES   REMARKS
ASPEN          SUNNY     71  20  14 W14G26    30.18S
BUENA VISTA    SUNNY     71  22  15 S13G21    30.19F
COPPER MTN     SUNNY     52  12  20 SW13G29   30.46S
BERTHOUD PASS  FAIR      43  36  75 W18       30.49R
COTTONWOOD PAS NOT AVBL
GUNNISON       SUNNY     68  36  30 S7        30.23F
KREMMLING      SUNNY     73  21  14 W15G21    30.15F
LEADVILLE      SUNNY     62  10  13 W13G25    30.31S
MONARCH PASS   SUNNY     50  23  34 W13G30    30.58R
SALIDA         SUNNY     75  32  21 S7G17     30.24F
SUNLIGHT       SUNNY     59  23  25 CALM      30.39F
WILKERSON PASS SUNNY     61  21  21 SW12G21   30.43F
$$

COZ069>075-021900-
...SAN LUIS VALLEY/SANGRE DE CRISTO MOUNTAINS...

CITY           SKY/WX    TMP DP  RH WIND       PRES   REMARKS
ALAMOSA        SUNNY     75  21  13 SE9G22    30.20F
LA VETA PASS   SUNNY    N/A N/A N/A MISG      30.37S
SAGUACHE       SUNNY     68  39  34 SE9       30.23F
$$

COZ035-036-038>040-021900-
...NORTHERN COLORADO FRONT RANGE...

CITY           SKY/WX    TMP DP  RH WIND       PRES   REMARKS
DENVER INTL AP MOSUNNY   82  50  32 VRB5      29.97F
DMNS CITY PARK   N/A     84  33  15 SW3G12    29.94F
AURORA         MOSUNNY   82  33  17 W9        29.99F
FRONT RANGE AP MOSUNNY   84  43  23 W5        29.99S
ERIE MUNI ARPT SUNNY     83  31  15 NE3       29.94F
BOULDER MUN AP SUNNY     81  46  30 NE6       29.94F
CENTENNIAL     MOSUNNY   81  33  17 SW12G22   30.00F
BROOMFIELD     MOSUNNY   82  32  16 CALM      29.99F
FORT COLLINS   SUNNY     75  57  53 SE6       29.94F
LONGMONT       SUNNY     86  50  28 E5        29.95F
$$

COZ041-046-047-076>085-087-088-021900-
...PIKES PEAK/PALMER DIVIDE AND SOUTHERN FOOTHILLS...

CITY           SKY/WX    TMP DP  RH WIND       PRES   REMARKS
COLO. SPRINGS  PTSUNNY   81  29  15 SE3       30.04F
A. F. ACADEMY  MOSUNNY   81  30  16 S16G29    30.05F
ELLICOTT       SUNNY    N/A N/A N/A CALM      30.04F
FALCON         SUNNY     80  22  12 SW6       30.11F
FORT CARSON    NOT AVBL
LIMON          MOSUNNY   79  54  41 CALM      29.99F
MONUMENT HILL  SUNNY     77  30  18 SE13G18   30.11F
TRINIDAD       SUNNY     83  26  12 CALM      30.04F
$$

COZ042>045-048>051-090-091-021900-
...NORTHEAST COLORADO...

CITY           SKY/WX    TMP DP  RH WIND       PRES   REMARKS
GREELEY ARPT   SUNNY     75  57  53 SE3       29.93F
AKRON          MOSUNNY   79  53  40 W9        29.94S
BURLINGTON     MOSUNNY   80  61  52 S9        29.93F
WRAY           SUNNY     80  63  54 SW8       29.90S
STERLING       MOSUNNY   77  61  57 S6        29.88F
HOLYOKE        NOT AVBL
FORT MORGAN    MOSUNNY   76  55  47 W5        29.94F
$$

COZ086-089-092>099-021900-
...SOUTHEAST COLORADO...

CITY           SKY/WX    TMP DP  RH WIND       PRES   REMARKS
PUEBLO         MOSUNNY   87  36  16 NW10G17   29.94F
LA JUNTA       MOSUNNY   82  55  39 VRB6      29.93F
LAMAR          SUNNY     83  56  39 VRB3      29.89F
SPRINGFIELD      N/A     84  52  33 VRB6      29.95F
$$



USA.gov is the U.S. government's official web portal to all federal, state and local government web resources and services.